Weather in Bondyug

Russia / Perm Krai     60°29′31″N   55°55′44″E
temp.,
°C
wind,
m/s
gust,
m/s
humid.,
%
clouds,
%
prec.,
mm/h
press.,
hPa
HPBL,
m
1 march, mon
mon123:00−19se12942 0.0 101720
02:00−21sse11910 0.0 101820
05:00−23sse11910 0.0 101920
08:00−23ssw11920 0.0 101820
11:00−18ssw24910 0.0 1018217
14:00−13ssw359014 0.0 1016405
17:00−12ssw389144 0.0 1013499
20:00−14s41194100 0.0 1010403
2 march, tue
tue223:00−14s51292100 0.0 1008452
02:00−13s51194100 0.3 1004516
05:00−13s51194100 1.4 1002584
08:00−12s51094100 1.3 998572
11:00−11s41094100 2.1 997558
14:00−10s4894100 0.7 995573
17:00−10s4895100 1.6 995482
20:00−11s3795100 1.0 995352
3 march, wed
wed323:00−12sse2596100 1.3 996191
02:00−14sse229798 0.2 99574
05:00−15sse229796 0.3 99542
08:00−14sse229796 0.1 99468
11:00−11s239698 0.2 994176
14:00−7sse2395100 0.3 994296
17:00−6sse1396100 0.8 994241
20:00−7s1197100 1.0 99440
4 march, thu
thu423:00−7nw4995100 2.0 995521
02:00−10w2696100 0.4 994182
05:00−15w239899 0.4 99551
08:00−14wsw229895 0.1 99575
11:00−11wsw259596 0.2 995284
14:00−9sw3593100 0.1 994436
17:00−8ssw3693100 0.3 994580
20:00−10s269799 0.2 994171
5 march, fri
fri523:00−9s389699 0.4 993310
02:00−11se2597100 0.1 990131
05:00−10ese3895100 0.6 988318
08:00−10e3795100 0.8 988387
11:00−9ne2495100 1.5 988336
14:00−7nnw3693100 0.4 990605
17:00−8nw5994100 1.0 995659
20:00−11wnw51094100 0.6 999524